Temp
17 16 17 19 21 22 22 23 23 24 23 24 24 25 26 27 28 27 26 31 31 31 30 29 29 30 28 25 25 25 25 25 29 32 32 34 34 34 33 31 31 31 29 28 27
17 16 17 19 21 22 23 23 24 24 24 24 24 25 26 27 27 26 32 31 30 30 29 30 28 27 25 26 26 25 26 27 31 32 34 34 34 35 32 31 29 29 29 29 27
17 16 17 20 21 22 23 23 24 24 24 24 25 25 26 26 25 29 33 32 30 30 30 28 28 26 25 26 26 26 26 31 32 33 33 34 33 34 30 29 29 28 29 29 29
17 17 17 20 21 23 23 24 24 24 24 24 25 25 26 26 29 33 33 31 30 29 30 29 29 26 26 26 27 25 29 29 32 33 33 34 35 33 31 31 30 30 29 29 28
18 18 18 20 21 23 23 24 24 24 24 24 25 25 25 26 27 32 32 31 30 30 30 29 26 25 24 26 27 27 29 33 36 36 34 34 32 31 32 31 31 30 30 29 28
18 18 19 20 22 23 23 24 24 24 25 24 24 25 24 27 33 33 32 31 31 30 28 26 22 24 25 26 27 29 30 32 32 32 35 33 32 32 31 31 30 30 29 29 28
18 18 20 21 22 23 24 24 24 25 25 24 24 25 24 28 33 33 33 32 32 31 30 25 24 25 26 27 29 30 29 31 32 33 32 32 30 30 30 31 31 30 30 29 29
18 18 20 21 23 23 24 24 25 25 25 24 24 24 25 34 33 33 33 33 33 32 31 30 25 28 27 28 30 28 28 28 30 31 32 30 29 30 28 28 30 30 30 30 29
18 18 20 22 23 24 24 25 25 25 25 24 25 24 27 33 33 34 34 34 34 33 31 28 28 28 28 28 26 26 28 27 29 32 32 31 28 29 28 29 29 29 30 31 30
18 18 20 22 23 24 25 25 25 26 25 23 24 25 28 33 35 35 35 35 32 31 31 28 25 27 26 26 29 28 28 28 28 30 32 30 28 28 27 27 27 27 28 27 29
18 19 20 22 23 24 25 26 24 25 25 27 28 29 33 35 36 35 36 35 34 31 29 25 28 28 28 29 30 28 29 29 31 31 32 30 29 27 27 25 27 26 26 28 27
18 20 21 22 23 24 24 21 27 29 27 27 29 30 33 34 35 36 36 34 32 30 30 28 29 30 31 32 29 28 28 27 31 33 31 28 28 27 28 27 27 28 26 27 27
19 20 21 22 24 24 24 26 30 30 28 31 30 31 32 34 34 35 34 33 32 31 28 29 32 33 32 31 31 29 28 30 33 32 31 29 27 27 28 28 28 28 28 27 26
19 21 22 23 22 23 24 34 30 29 25 30 32 33 35 36 35 37 36 34 31 31 30 28 31 34 35 34 31 28 32 33 33 31 28 30 27 26 26 27 28 28 29 28 26
20 21 22 22 21 21 31 30 29 29 27 33 33 37 36 34 35 36 37 32 30 31 30 31 32 33 33 35 34 35 36 35 34 30 30 31 29 29 26 27 28 29 29 29 28
21 22 22 21 21 29 29 31 30 27 28 33 34 35 34 34 35 36 36 33 32 31 31 30 33 33 34 36 35 37 34 31 28 26 26 29 29 29 28 30 31 30 30 30 30
22 22 22 22 24 28 30 27 26 26 32 33 33 34 33 32 32 35 34 33 31 31 29 29 31 34 36 35 34 32 29 27 28 28 27 27 29 29 30 31 31 30 31 30 29
23 23 23 26 28 28 28 26 28 30 32 34 33 31 30 27 31 31 32 31 32 30 27 29 31 34 36 34 35 35 30 28 31 28 30 29 30 30 31 31 32 32 30 30 28
24 23 24 31 29 27 24 25 27 30 35 35 32 28 28 28 30 29 30 30 30 29 31 30 31 35 36 36 35 35 32 31 30 28 29 28 32 33 32 33 32 32 30 29 28
23 23 26 31 29 27 24 25 28 32 33 33 32 31 28 28 31 29 31 33 33 31 29 32 30 33 36 36 36 34 33 31 26 31 32 29 31 28 31 31 30 29 28 28 27
23 22 32 32 29 23 25 25 30 32 34 36 34 33 29 28 28 29 32 34 33 31 29 30 29 32 33 34 33 33 32 30 27 26 28 27 28 27 29 29 29 28 26 26 25
21 24 33 31 25 22 25 30 31 33 34 37 36 33 28 29 28 29 30 33 33 30 30 30 27 29 32 32 33 34 34 28 27 30 26 26 28 30 30 29 27 27 26 25 25
21 22 31 33 26 25 27 30 32 33 33 36 35 35 35 31 33 30 35 36 34 33 33 33 27 26 28 29 30 32 32 34 26 24 28 27 28 27 27 27 27 26 25 25 24
21 24 24 25 23 28 30 29 31 33 34 35 36 35 34 34 33 34 35 36 34 34 29 28 26 27 26 28 29 31 31 32 29 26 27 26 30 29 27 26 26 26 26 25 24
20 24 26 26 27 28 30 30 30 31 34 37 36 36 35 35 32 32 33 33 32 29 33 29 29 28 28 28 31 32 32 31 31 30 30 30 27 26 26 26 26 26 25 25 24
22 23 22 23 25 27 27 29 31 32 33 34 34 35 33 32 32 33 32 32 34 33 33 28 30 29 32 31 32 32 31 31 31 32 32 27 28 27 26 26 27 28 26 25 24
23 23 21 22 25 27 28 30 31 31 33 35 35 33 32 33 32 32 31 30 33 33 29 29 27 27 28 29 30 29 31 31 30 30 30 27 27 26 27 27 25 25 25 26 25
Height
792 790 788 787 786 785 784 783 783 784 784 785 786 787 786 784 782 779 778 775 774 776 776 776 774 778 779 785 792 795 813 817 798 785 779 756 765 760 757 771 771 772 776 781 790
791 789 787 786 785 784 783 782 782 783 783 784 785 786 784 782 779 774 769 771 774 775 775 776 777 778 786 788 789 798 801 795 773 768 768 762 762 762 771 777 781 779 781 783 790
790 788 786 785 784 782 781 781 781 782 783 783 784 784 783 781 780 767 764 768 774 774 774 776 776 781 792 790 794 798 805 774 766 766 765 765 766 759 777 789 777 782 782 784 787
789 787 785 783 782 781 780 780 780 780 781 782 783 784 782 782 795 764 764 769 771 775 777 780 777 785 794 800 790 807 784 780 767 761 760 762 757 769 770 774 770 772 777 783 786
788 785 784 782 781 780 779 779 779 780 781 783 783 782 782 783 774 763 765 770 771 774 775 779 786 792 804 800 796 792 780 767 753 755 759 757 770 777 772 769 772 776 780 785 788
786 784 782 781 780 779 778 778 778 779 780 782 782 781 781 789 761 761 764 768 768 769 772 785 791 785 784 788 795 774 777 773 764 767 760 765 772 767 779 773 776 776 781 783 784
784 783 780 779 778 778 777 777 777 778 779 781 781 780 781 771 760 761 761 762 762 765 772 783 780 787 781 785 774 774 785 775 769 768 769 761 790 787 779 776 781 779 778 781 781
783 780 778 777 777 777 776 775 776 777 778 780 780 779 777 756 759 761 760 760 763 772 773 768 774 778 784 774 774 789 789 802 781 771 770 778 811 787 783 780 781 780 776 777 778
781 779 777 776 776 775 775 774 775 776 777 778 780 779 775 754 755 755 757 757 758 765 770 774 777 782 780 791 809 802 814 811 799 772 775 780 802 777 773 775 776 776 776 773 774
779 777 775 775 774 774 773 773 773 774 775 778 779 785 762 755 749 752 753 754 759 759 765 780 790 793 797 804 819 813 809 802 803 782 772 783 789 774 771 777 780 778 775 772 770
775 774 774 774 773 773 773 773 776 777 774 768 764 761 752 748 747 749 748 751 753 762 785 786 796 807 797 782 783 794 800 801 782 771 773 783 786 780 775 780 776 774 771 767 770
773 771 772 773 773 773 774 774 768 770 777 753 754 755 749 750 757 746 747 760 765 786 778 790 798 778 769 772 785 796 804 802 777 762 773 789 790 780 777 775 772 772 773 769 768
770 770 770 772 773 774 772 765 763 765 774 755 747 750 746 742 752 750 746 756 771 781 788 796 777 763 775 778 787 794 800 788 779 772 776 791 804 792 778 774 771 764 765 765 764
767 767 769 771 776 772 768 760 766 769 800 774 756 746 740 738 753 736 742 750 768 782 780 790 765 765 765 769 775 802 762 770 772 788 817 783 832 803 787 781 775 765 761 758 760
765 766 768 771 771 770 764 762 764 768 836 756 753 731 732 750 745 744 737 748 775 775 778 783 769 768 771 761 757 768 745 756 758 782 792 793 813 798 787 790 773 760 755 752 750
762 765 767 770 769 763 760 759 762 808 829 766 745 749 754 748 749 741 746 745 754 770 771 774 752 757 756 744 745 740 756 768 782 796 827 797 803 801 794 775 764 756 748 744 743
761 764 766 767 763 761 758 758 808 826 763 769 764 754 762 772 767 757 762 770 784 799 800 785 769 747 738 758 747 757 788 827 828 824 829 792 801 789 764 757 752 752 746 746 743
761 763 765 762 760 761 760 783 816 783 773 744 753 765 785 788 777 774 776 786 770 780 806 809 805 762 737 753 763 760 782 822 829 836 811 789 806 781 747 742 739 736 739 743 742
761 763 763 756 762 766 774 811 804 779 747 751 761 791 800 785 780 784 784 783 769 769 793 803 793 747 739 736 747 761 785 768 799 805 814 808 777 757 750 745 743 743 744 746 745
762 763 758 756 761 765 786 802 780 754 746 746 780 773 802 789 779 786 784 754 760 756 759 774 801 760 743 734 738 753 750 795 810 824 821 815 796 800 768 761 754 752 751 750 749
763 768 750 754 762 776 800 791 764 743 743 748 761 769 783 787 788 788 778 752 748 757 762 774 792 778 757 767 771 765 777 779 795 813 830 840 812 762 761 755 756 756 753 753 753
764 778 747 751 781 785 790 769 750 745 733 731 734 750 775 773 784 784 780 757 738 751 775 767 793 802 779 757 747 753 764 786 815 810 813 819 805 746 744 748 750 756 754 752 750
769 766 746 747 790 791 773 763 755 748 742 736 744 741 743 766 775 773 755 734 736 748 759 753 795 824 804 780 760 770 764 760 788 803 805 820 804 753 747 752 751 753 754 751 749
769 780 760 755 763 768 772 771 764 739 737 730 736 735 747 754 750 758 752 737 731 736 744 750 792 806 829 805 785 782 773 766 783 813 805 804 777 765 761 759 755 751 747 746 746
768 774 764 781 772 766 765 765 768 766 737 725 737 737 747 760 765 768 754 748 742 745 743 757 787 786 784 780 770 770 769 768 775 776 788 774 781 771 760 755 751 746 746 747 747
773 775 769 773 764 764 769 768 763 753 750 746 747 737 744 759 759 765 759 759 756 750 752 762 783 780 778 766 765 771 766 764 762 758 755 769 768 751 748 746 746 743 743 744 743
767 767 771 771 769 770 772 766 755 748 736 729 733 743 752 746 741 738 739 745 745 753 764 767 779 790 801 776 775 790 766 760 758 750 752 775 755 746 749 746 746 743 741 740 738
Wind_Speed
13 13 11 10 7 6 5 4 4 5 6 5 6 7 9 11 12 10 6 6 3 3 6 8 10 6 15 3 2 3 2 4 3 1 3 12 17 12 9 17 6 11 9 23 30
14 14 12 10 7 6 5 4 4 4 5 5 6 7 9 12 13 12 17 12 6 5 7 2 2 6 4 5 3 3 2 6 8 1 4 4 12 10 10 11 10 14 16 22 31
15 15 13 10 7 6 6 5 4 4 4 5 6 7 8 10 4 6 3 11 8 9 7 6 5 4 6 2 4 4 4 8 8 18 4 6 6 3 13 8 20 22 21 16 19
15 16 14 10 7 6 6 5 4 4 4 5 6 7 8 4 1 3 6 13 11 10 7 7 9 5 4 3 2 2 14 15 12 12 9 10 7 4 6 7 19 23 19 15 12
15 16 14 10 7 7 6 5 5 4 4 4 5 6 2 1 8 6 11 13 11 11 10 10 17 7 4 4 5 7 13 10 12 11 3 17 14 8 10 18 18 18 17 16 11
16 16 14 10 8 7 7 6 5 4 4 3 4 5 0 3 4 8 13 15 14 14 14 19 9 3 4 4 1 11 11 13 16 9 5 18 6 12 7 15 18 18 15 14 14
16 16 14 10 8 7 7 6 5 4 4 3 3 2 2 11 4 15 15 14 19 20 10 27 22 10 2 6 5 5 5 4 6 4 4 10 6 7 6 6 13 16 16 15 15
16 16 14 10 7 7 7 6 5 4 4 3 2 0 6 9 6 11 15 12 13 10 9 28 31 7 3 6 4 5 3 4 5 6 4 12 1 5 5 3 4 10 15 15 15
16 16 12 9 7 7 7 6 5 4 3 2 1 2 9 9 8 19 16 8 6 8 14 29 22 6 2 1 4 4 2 1 4 0 3 7 5 6 8 3 7 5 9 13 14
15 15 10 7 7 7 6 5 4 3 2 1 4 4 7 4 7 17 21 19 4 4 3 6 5 3 3 3 1 5 2 4 4 4 6 3 4 6 7 1 6 7 5 5 9
16 14 8 6 7 7 4 2 3 1 3 8 5 4 5 8 16 14 19 12 7 5 4 2 3 3 9 8 4 3 4 6 6 8 4 5 7 10 9 5 9 6 7 7 5
15 12 6 6 6 5 3 1 4 2 6 14 11 8 16 12 5 6 15 4 4 1 4 4 2 6 10 6 4 2 2 9 9 8 5 4 5 7 9 7 9 4 7 8 6
13 9 5 5 4 5 9 16 9 16 1 6 7 6 7 9 9 8 9 5 3 3 2 3 5 5 13 11 7 6 6 6 6 10 7 6 6 4 7 9 11 13 5 9 10
10 6 5 5 2 1 8 7 16 8 5 6 4 7 5 2 3 10 12 6 3 1 2 5 4 8 7 10 14 4 12 8 12 5 5 7 3 6 7 12 14 16 13 13 10
7 6 8 12 2 5 1 13 15 3 4 4 5 5 6 7 3 1 13 6 7 4 5 6 6 7 6 4 11 7 3 4 8 5 6 4 4 5 6 8 14 14 16 18 13
6 9 9 6 10 9 19 16 4 5 5 3 8 5 6 2 2 2 5 6 4 3 3 9 6 4 5 9 5 2 4 9 5 3 4 7 6 5 6 8 5 5 6 9 11
6 9 12 11 4 8 17 3 5 3 5 5 6 5 3 6 7 0 3 3 4 1 3 6 6 5 5 4 5 8 6 3 5 4 6 6 4 7 6 7 9 9 9 9 8
6 10 10 23 9 11 13 5 2 5 6 3 6 7 5 9 4 7 3 2 2 4 3 2 6 3 5 7 5 1 6 5 3 2 4 4 5 5 8 10 10 7 8 9 6
4 3 7 20 17 11 4 3 6 5 5 8 6 8 6 3 5 7 4 6 8 10 5 4 5 3 5 5 6 3 1 5 4 1 4 3 3 5 2 3 3 6 8 9 7
4 2 8 16 8 5 5 5 5 4 10 8 4 6 7 5 5 5 4 6 3 6 7 1 3 3 7 5 4 6 3 4 4 2 3 6 3 5 6 8 6 5 9 7 6
1 3 8 15 11 5 2 7 6 7 4 5 7 5 2 6 5 8 8 5 6 4 6 3 3 8 4 5 5 2 3 5 4 5 4 2 6 8 10 9 9 6 7 9 8
2 1 5 26 3 1 2 5 5 14 22 5 4 5 10 8 6 2 6 8 9 8 6 8 5 2 6 6 5 4 0 2 5 6 1 4 6 6 4 6 11 8 8 7 8
1 3 8 22 4 2 7 8 5 13 7 5 5 5 2 7 3 7 5 3 9 8 9 3 2 4 11 9 6 6 5 3 4 3 3 4 6 9 7 9 6 11 8 8 7
3 3 4 4 1 6 2 6 5 10 8 4 4 5 6 6 4 4 1 7 6 5 7 9 4 7 6 8 4 6 7 4 4 3 3 6 4 2 4 9 6 7 8 9 8
2 4 2 3 5 7 4 4 8 7 5 1 4 2 4 1 5 5 6 6 5 2 3 5 5 6 7 9 3 2 4 8 4 7 5 9 8 8 8 9 8 8 7 6 7
2 2 4 3 4 6 5 6 6 12 5 7 5 3 5 5 5 0 2 4 1 3 1 3 3 6 3 6 2 4 5 7 7 6 2 6 3 7 6 5 5 5 7 7 8
5 4 4 5 4 5 1 5 10 7 5 3 4 4 6 4 6 7 5 4 5 4 4 4 3 2 6 5 5 5 6 7 7 8 7 7 9 7 6 7 7 6 7 6 6
Wind_Direction
344 339 340 329 322 315 310 305 291 296 306 308 312 323 322 315 310 291 246 222 302 218 79 51 72 112 69 103 99 141 100 239 283 266 91 113 115 153 139 136 174 189 147 162 147
342 339 338 328 318 311 304 291 285 297 306 309 324 337 333 324 315 268 254 237 263 145 92 87 156 119 83 355 49 103 259 226 196 240 135 130 135 140 117 148 102 109 138 155 143
339 337 337 327 314 304 296 290 282 289 293 310 337 342 328 330 338 254 314 204 187 141 108 93 92 83 80 310 35 17 260 294 299 126 83 247 146 99 117 130 149 145 154 158 163
336 335 336 327 309 297 292 287 280 285 303 326 341 330 324 332 257 300 152 152 169 120 138 64 1 40 75 330 0 287 251 255 311 173 194 156 131 103 128 165 154 148 154 155 168
335 333 333 323 305 291 288 281 278 287 300 326 332 331 331 354 250 211 163 156 144 120 97 111 58 13 341 356 281 270 269 318 145 171 111 84 72 49 107 135 142 146 151 161 171
331 330 330 320 301 287 283 276 281 282 293 321 334 336 269 278 243 205 175 159 155 149 130 71 34 233 241 198 223 257 292 305 88 275 99 93 77 103 59 139 148 155 163 171 183
326 327 326 314 297 284 278 276 269 272 287 321 332 347 249 243 210 174 182 186 186 175 158 137 165 174 183 314 202 278 304 261 79 325 76 98 22 91 60 128 168 167 171 184 198
323 323 322 307 288 279 273 273 266 272 292 313 318 239 250 266 230 187 195 228 232 207 202 175 166 187 212 238 360 349 50 54 316 50 54 52 12 7 92 104 194 201 183 191 206
319 320 319 300 280 272 267 263 267 272 269 261 358 156 270 312 183 200 200 207 259 182 114 153 149 199 247 58 11 15 14 120 306 289 158 138 190 264 181 174 215 168 205 204 207
316 317 314 289 272 269 263 273 277 277 245 232 251 322 277 244 202 196 214 217 164 134 78 110 166 155 8 176 184 217 259 265 208 204 125 147 194 267 276 220 248 194 191 246 222
312 312 305 276 264 273 277 277 21 2 193 208 190 222 278 293 188 204 214 222 199 78 160 179 122 184 207 227 117 167 245 242 261 204 121 216 214 234 239 258 263 163 181 230 249
309 305 287 261 251 260 245 174 194 91 297 225 233 259 267 272 270 208 203 125 66 174 342 9 296 176 210 217 150 231 233 266 281 166 116 140 278 225 215 252 249 159 200 217 252
303 290 255 240 245 257 236 231 170 355 231 288 198 220 238 159 207 219 145 127 137 192 67 222 214 126 184 238 216 207 218 246 225 136 42 106 329 238 236 259 283 278 214 216 210
295 260 220 194 181 230 257 238 284 313 45 277 183 261 249 187 293 192 162 141 63 358 4 243 272 273 266 235 196 267 219 246 95 129 190 171 255 270 228 240 249 258 253 247 209
271 226 204 193 189 207 215 329 340 108 19 239 198 234 191 145 213 279 159 55 162 211 100 254 297 339 324 273 188 233 267 132 187 178 112 171 103 268 150 254 255 254 241 242 223
236 209 207 227 258 269 324 328 122 48 258 252 177 161 115 220 254 342 142 53 150 83 309 253 288 237 225 293 273 319 35 32 51 56 18 218 145 268 184 197 184 232 221 216 223
215 205 197 197 212 328 346 56 50 149 304 182 166 143 139 3 359 110 171 134 164 104 315 332 270 265 234 318 337 60 66 355 359 4 218 196 94 229 205 192 180 187 156 145 184
208 217 223 228 234 323 355 57 193 246 250 259 141 71 80 359 41 355 36 233 238 142 149 113 340 219 247 185 213 339 137 148 261 220 281 82 216 252 182 192 194 173 171 123 138
179 214 246 235 248 278 63 82 215 226 299 157 49 73 4 285 146 50 289 237 199 171 184 161 269 293 244 247 134 291 357 188 124 231 28 270 1 5 351 183 142 193 159 144 151
135 228 255 227 218 120 72 234 243 214 327 69 82 137 177 236 162 89 230 217 234 202 126 240 324 304 316 56 314 161 189 19 13 24 323 329 310 221 210 209 159 153 145 127 98
83 44 226 214 164 53 177 241 289 266 295 134 190 149 157 198 156 177 247 297 191 76 78 33 96 291 20 8 281 351 350 47 114 133 166 200 265 213 195 202 173 144 125 130 122
66 359 207 162 83 205 193 216 268 302 310 260 119 107 168 171 199 232 238 218 173 138 161 217 164 296 252 261 276 161 71 114 109 276 228 146 278 349 221 145 135 137 136 145 141
99 256 145 163 152 278 279 284 278 299 267 9 51 90 178 144 153 193 230 214 161 152 179 189 33 15 342 353 2 34 348 47 133 100 279 118 270 0 85 99 122 136 159 168 164
73 3 326 42 136 169 295 286 286 310 287 90 149 90 45 16 38 297 344 213 180 146 119 87 118 153 193 219 215 308 329 15 87 100 241 221 224 11 79 127 152 173 180 187 188
67 261 193 271 292 241 150 294 309 317 315 295 358 167 149 93 27 2 343 7 30 94 134 107 181 175 233 232 275 285 314 326 325 248 183 266 167 206 182 166 182 198 218 212 202
90 43 349 265 302 194 153 265 243 280 218 325 195 243 67 118 157 142 98 45 327 249 208 15 251 163 265 280 257 255 283 298 296 274 293 162 169 197 208 154 145 162 141 167 205
6 359 113 273 0 41 63 276 290 333 283 191 96 93 80 161 175 169 164 173 197 199 219 157 137 63 277 270 326 328 257 259 257 274 196 189 209 171 162 152 155 145 130 137 173